Hourly Data Report for February 02, 2020

All times are specified in Local Standard Time (LST). Add 1 hour to adjust for Daylight Saving Time where and when it is observed.

OTTAWA INTL A
ONTARIO
Current Station Operator: NAVCAN

45°19'00.000" N
75°40'00.000" W
114.90 m
6106001
71628
YOW

Download Data

Hourly Data (February 2020)
Hourly Data Report for February 2, 2020
TIME Temp Definition
°C
Dew Point Definition
°C
Rel Hum Definition
%
Wind Dir Definition
10's deg

Wind Spd Definition
km/h
Visibility Definition
km
Stn Press Definition
kPa
Hmdx Definition


Wind Chill Definition


Weather Definition


00:00 -6.4 -7.4 93 17 5 6.4 99.15   -9 Snow,Fog
01:00 -6.5 -7.7 92 5 5 6.4 99.05   -9 Snow,Fog
02:00 -7.1 -8.2 92 4 8 2.4 99.02   -11 Snow
03:00 -7.2 -8.2 92 6 7 3.2 98.96   -11 Snow
04:00 -7.2 -8.3 92 7 9 3.2 98.87   -12 Snow
05:00 -6.9 -8.0 92 9 7 3.2 98.81   -10 Snow
06:00 -7.9 -9.1 92 6 6 4.8 98.78   -11 Snow
07:00 -6.9 -7.9 93 9 7 6.4 98.73   -10 Snow
08:00 -6.2 -7.2 93 10 9 4.8 98.69   -10 Snow,Fog
09:00 -5.3 -6.2 94 13 9 2.4 98.66   -9 Snow,Fog
10:00 -4.6 -5.5 93 12 10 1.2 98.59   -9 Snow,Fog
11:00 -4.0 -5.0 93 11 8 1.2 98.52   -7 Snow,Fog
12:00 -3.5 -4.5 92 5 3 3.2 98.41   -5 Snow,Fog
13:00 -2.9 -4.2 90 8 5 6.4 98.32   -5 Fog
14:00 -2.5 -4.0 89 5 4 4.8 98.27   -4 Fog
15:00 -2.1 -3.7 89 6 3 4.8 98.28   -3 Fog
16:00 -2.0 -3.7 88 12 7 6.4 98.31   -5 Fog
17:00 -2.4 -3.9 90 11 7 12.9 98.33   -5 LegendNANA
18:00 -4.4 -5.5 92 3 12 12.9 98.39   -9 LegendNANA
19:00 -5.0 -5.9 94 7 8 4.8 98.47   -9 Fog
20:00 -5.1 -5.8 95 5 8 6.4 98.49   -9 Fog
21:00 -5.0 -5.7 94 3 10 2.4 98.51   -9 Fog
22:00 -4.5 -5.1 96 6 8 0.4 98.52   -8 Freezing Fog
23:00 -4.9 -5.5 95 5 11 0.8 98.52   -9 Freezing Fog

Notes on Data Quality.

Legend

  • E = Estimated
  • M = Missing
  • NA = Not Available*
  • [empty] = Indicates an unobserved value
Date modified: